Lafayette, IN

9:48 AM EST on February 06, 2016 (GMT -0500)
Purdue Univ

Weather History for KLAF - January, 2014

Change the Weather History Date:

Saturday, January 25, 2014

  Actual Average Record
Temperature  
Mean Temperature 19 °F 27 °F  
Max Temperature 31 °F 34 °F 56 °F (1989)
Min Temperature 6 °F 19 °F -14 °F (1987)
Degree Days  
Heating Degree Days 46 38  
Month to date heating degree days 1032 969  
Since 1 July heating degree days 3370 3144  
Cooling Degree Days 0 0  
Month to date cooling degree days 0 0  
Year to date cooling degree days 0 0  
Moisture  
Dew Point 12 °F    
Average Humidity 71    
Maximum Humidity 92    
Minimum Humidity 49    
Precipitation  
Precipitation 0.01 in 0.06 in 0.86 in (1950)
Month to date precipitation 0.78 1.53  
Year to date precipitation 0.78 1.53  
Sea Level Pressure  
Sea Level Pressure 29.66 in    
Wind  
Wind Speed 19 mph (West)    
Max Wind Speed 36 mph    
Max Gust Speed 47 mph    
Visibility 7 miles    
Events Snow    
T = Trace of Precipitation, MM = Missing Value Source: NWS Daily Summary

Daily Weather History Graph

Daily Weather History Graph

Search for Another Location

Airport or City:

Trip Planner

Search our weather history database for the weather conditions in past years. The results will help you decide how hot, cold, wet, or windy it might be!

Date:

Astronomy

Jan. 25, 2014 Rise Set
Actual Time 8:03 AM EST 5:57 PM EST
Civil Twilight 7:33 AM EST 6:26 PM EST
Nautical Twilight 7:00 AM EST 6:59 PM EST
Astronomical Twilight 6:28 AM EST 7:32 PM EST
Moon 2:34 AM EST (1/25) 12:57 PM EST (1/25)
Length of Visible Light 10h 53m
Length of Day
9h 54m
Waning Crescent, 34% of the Moon is Illuminated
Jan 25
Waning Crescent
Jan 30
New
Feb 6
First Quarter
Feb 14
Full
Feb 22
Last Quarter

Hourly Weather History & Observations

Time (EST) Temp. Windchill Dew Point Humidity Pressure Visibility Wind Dir Wind Speed Gust Speed Precip Events Conditions
12:54 AM 21.0 °F 5.4 °F 18.0 °F 88% 29.68 in 1.2 mi SW 20.7 mph 29.9 mph 0.00 in Snow Light Snow
1:54 AM 21.9 °F 8.7 °F 18.0 °F 85% 29.62 in 1.2 mi SW 15.0 mph 21.9 mph 0.00 in Snow Light Snow
2:23 AM 21.9 °F 9.2 °F 19.0 °F 89% 29.58 in 2.0 mi SW 13.8 mph 19.6 mph 0.00 in Snow Light Snow
2:32 AM 21.9 °F 7.8 °F 19.0 °F 89% 29.57 in 3.0 mi SW 17.3 mph 25.3 mph 0.01 in Snow Light Snow
2:42 AM 21.9 °F 9.2 °F 19.0 °F 89% 29.57 in 1.8 mi SW 13.8 mph 27.6 mph 0.01 in Snow Light Snow
2:50 AM 21.2 °F 6.8 °F 19.4 °F 93% 29.56 in 3.0 mi SW 17.3 mph 25.3 mph 0.01 in Snow Light Snow
2:51 AM 21.9 °F 7.8 °F 19.0 °F 89% 29.59 in 3.0 mi SW 17.3 mph 25.3 mph 0.01 in Snow Light Snow
3:54 AM 24.1 °F 13.1 °F 19.9 °F 84% 29.56 in 6.0 mi SW 11.5 mph - 0.00 in   Overcast
4:54 AM 25.0 °F 12.2 °F 21.0 °F 85% 29.54 in 10.0 mi SW 16.1 mph 31.1 mph 0.00 in   Overcast
5:54 AM 26.1 °F 14.0 °F 21.0 °F 81% 29.52 in 4.0 mi WSW 15.0 mph 20.7 mph 0.00 in Snow Light Snow
6:07 AM 26.1 °F 15.6 °F 21.9 °F 84% 29.49 in 2.5 mi WSW 11.5 mph 23.0 mph 0.00 in Snow Light Snow
6:15 AM 26.1 °F 13.6 °F 21.9 °F 84% 29.49 in 5.0 mi WSW 16.1 mph 24.2 mph 0.00 in Snow Light Snow
6:54 AM 27.0 °F 16.1 °F 24.1 °F 89% 29.51 in 10.0 mi WSW 12.7 mph - 0.00 in   Overcast
7:49 AM 30.2 °F 18.1 °F 26.6 °F 86% 29.49 in 10.0 mi West 18.4 mph 32.2 mph N/A   Overcast
7:54 AM 30.0 °F 19.5 °F 26.1 °F 85% 29.51 in 10.0 mi West 13.8 mph 32.2 mph N/A   Overcast
8:54 AM 28.9 °F 15.8 °F 21.0 °F 72% 29.53 in 6.0 mi West 20.7 mph 29.9 mph N/A   Haze
9:54 AM 28.9 °F 17.7 °F 21.0 °F 72% 29.56 in 8.0 mi West 15.0 mph 31.1 mph N/A   Scattered Clouds
10:54 AM 28.0 °F 12.0 °F 18.0 °F 66% 29.58 in 10.0 mi WNW 31.1 mph 39.1 mph 0.00 in   Clear
11:54 AM 23.0 °F 6.0 °F 8.1 °F 53% 29.62 in 8.0 mi WNW 27.6 mph 40.3 mph 0.00 in   Clear
12:54 PM 21.0 °F 3.3 °F 7.0 °F 55% 29.65 in 8.0 mi WNW 27.6 mph 42.6 mph N/A   Partly Cloudy
1:54 PM 19.9 °F 0.7 °F 3.9 °F 50% 29.69 in 6.0 mi WNW 32.2 mph 42.6 mph N/A Snow Blowing Snow
2:54 PM 19.0 °F 2.4 °F 3.9 °F 52% 29.72 in 10.0 mi WNW 21.9 mph 35.7 mph N/A Snow Blowing Snow
3:54 PM 16.0 °F -1.3 °F 3.0 °F 57% 29.76 in 10.0 mi WNW 20.7 mph 35.7 mph N/A Snow Blowing Snow
4:54 PM 15.1 °F -2.5 °F -0.0 °F 51% 29.81 in 9.0 mi NW 20.7 mph 33.4 mph N/A Snow Blowing Snow
5:54 PM 12.9 °F -6.1 °F -0.0 °F 56% 29.86 in 10.0 mi WNW 23.0 mph 31.1 mph N/A   Partly Cloudy
6:54 PM 10.9 °F -5.4 °F -0.0 °F 61% 29.90 in 10.0 mi West 15.0 mph - N/A   Clear
7:54 PM 10.0 °F -5.9 °F -0.0 °F 64% 29.91 in 10.0 mi West 13.8 mph - N/A   Clear
8:54 PM 9.0 °F -7.3 °F -2.9 °F 59% 29.93 in 10.0 mi West 13.8 mph - N/A   Clear
9:54 PM 7.0 °F -7.5 °F -2.9 °F 64% 29.94 in 10.0 mi West 10.4 mph - N/A   Clear
10:54 PM 7.0 °F -7.5 °F -5.1 °F 58% 29.92 in 10.0 mi WNW 10.4 mph - N/A   Clear
11:54 PM 7.0 °F -4.5 °F -4.0 °F 61% 29.93 in 10.0 mi West 6.9 mph - N/A   Clear